,,,PA_Meas_PMT16A,,PR_Meas_QMR101_102,,RH_Meas_QMH101,,SR_Meas_QMS101,,TA_Meas_QMH101,,GenWind,,GenWind,
date,time,status,PA,status,PR,status,RH,status,SR,status,TA,status,DirAvg,status,SpdAvg,
2011-07-22, 00:00:05,VALID,1000.61,VALID,0,VALID,69.9026,VALID,0,VALID,25.046,VALID,131,VALID,2.12422,
2011-07-22, 00:01:05,VALID,1000.57,VALID,0,VALID,70.7266,VALID,0,VALID,25.0265,VALID,126,VALID,1.50352,
2011-07-22, 00:02:05,VALID,1000.55,VALID,0,VALID,70.574,VALID,0,VALID,24.9893,VALID,131,VALID,1.95039,
2011-07-22, 00:03:05,VALID,1000.54,VALID,0,VALID,70.9021,VALID,0,VALID,24.9112,VALID,131,VALID,1.7082,
2011-07-22, 00:04:05,VALID,1000.56,VALID,0,VALID,71.0241,VALID,0,VALID,24.8917,VALID,126,VALID,1.19453,
2011-07-22, 00:05:05,VALID,1000.54,VALID,0,VALID,71.5353,VALID,0,VALID,24.8527,VALID,135,VALID,0.851563,
2011-07-22, 00:06:05,VALID,1000.55,VALID,0,VALID,71.9321,VALID,0,VALID,24.8117,VALID,132,VALID,0.641016,
2011-07-22, 00:07:05,VALID,1000.56,VALID,0,VALID,72.1609,VALID,0,VALID,24.7551,VALID,134,VALID,0.334766,
2011-07-22, 00:08:05,VALID,1000.53,VALID,0,VALID,72.3135,VALID,0,VALID,24.6946,VALID,134,VALID,0.192969,
2011-07-22, 00:09:05,VALID,1000.53,VALID,0,VALID,72.1457,VALID,0,VALID,24.6575,VALID,134,VALID,0.0429688,
2011-07-22, 00:10:05,VALID,1000.54,VALID,0,VALID,72.1991,VALID,0,VALID,24.6166,VALID,134,VALID,0.177344,
2011-07-22, 00:11:05,VALID,1000.52,VALID,0,VALID,72.1304,VALID,0,VALID,24.5971,VALID,134,VALID,0.195313,
2011-07-22, 00:12:05,VALID,1000.54,VALID,0,VALID,72.9697,VALID,0,VALID,24.5989,VALID,134,VALID,0,
2011-07-22, 00:13:05,VALID,1000.51,VALID,0,VALID,72.9087,VALID,0,VALID,24.558,VALID,134,VALID,0.326562,
2011-07-22, 00:14:05,VALID,1000.51,VALID,0,VALID,74.0149,VALID,0,VALID,24.519,VALID,72,VALID,0.611328,
2011-07-22, 00:15:05,VALID,1000.54,VALID,0,VALID,74.1675,VALID,0,VALID,24.4409,VALID,72,VALID,0.564844,
2011-07-22, 00:16:05,VALID,1000.5,VALID,0,VALID,74.3735,VALID,0,VALID,24.4214,VALID,72,VALID,0.309375,
2011-07-22, 00:17:05,VALID,1000.49,VALID,0,VALID,74.4269,VALID,0,VALID,24.4037,VALID,74,VALID,0.337891,
2011-07-22, 00:18:05,VALID,1000.46,VALID,0,VALID,74.3049,VALID,0.112286,VALID,24.3842,VALID,122,VALID,0.273828,
2011-07-22, 00:19:05,VALID,1000.46,VALID,0,VALID,73.1223,VALID,0,VALID,24.4037,VALID,142,VALID,1.24297,
2011-07-22, 00:20:05,VALID,1000.43,VALID,0,VALID,72.7255,VALID,0,VALID,24.4604,VALID,124,VALID,0.962109,
2011-07-22, 00:21:05,VALID,1000.44,VALID,0,VALID,72.4738,VALID,0,VALID,24.519,VALID,137,VALID,1.01953,
2011-07-22, 00:22:05,VALID,1000.41,VALID,0,VALID,71.7871,VALID,0,VALID,24.5794,VALID,143,VALID,1.15664,
2011-07-22, 00:23:05,VALID,1000.4,VALID,0,VALID,71.398,VALID,0,VALID,24.6575,VALID,144,VALID,0.842188,
2011-07-22, 00:24:05,VALID,1000.4,VALID,0,VALID,71.4285,VALID,0.112286,VALID,24.7142,VALID,150,VALID,0.902734,
2011-07-22, 00:25:05,VALID,1000.36,VALID,0,VALID,71.4285,VALID,0,VALID,24.7532,VALID,148,VALID,0.741406,
2011-07-22, 00:26:05,VALID,1000.36,VALID,0,VALID,71.6192,VALID,0,VALID,24.7727,VALID,147,VALID,0.637109,
2011-07-22, 00:27:05,VALID,1000.34,VALID,0,VALID,71.3141,VALID,0,VALID,24.7941,VALID,139,VALID,0.888281,
2011-07-22, 00:28:05,VALID,1000.34,VALID,0,VALID,71.4438,VALID,0,VALID,24.7941,VALID,138,VALID,0.702344,
2011-07-22, 00:29:05,VALID,1000.35,VALID,0,VALID,71.9168,VALID,0.112286,VALID,24.7727,VALID,138,VALID,0,
2011-07-22, 00:30:05,VALID,1000.33,VALID,0,VALID,72.2678,VALID,0.112286,VALID,24.7551,VALID,138,VALID,0.322266,
2011-07-22, 00:31:05,VALID,1000.36,VALID,0,VALID,73.0384,VALID,0,VALID,24.6751,VALID,190,VALID,0.426953,
2011-07-22, 00:32:05,VALID,1000.36,VALID,0,VALID,72.3441,VALID,0,VALID,24.677,VALID,190,VALID,0.00195313,
2011-07-22, 00:33:05,VALID,1000.43,VALID,0,VALID,72.5653,VALID,0,VALID,24.6361,VALID,190,VALID,0.00273437,
2011-07-22, 00:34:05,VALID,1000.4,VALID,0,VALID,72.4661,VALID,0,VALID,24.677,VALID,190,VALID,0.291016,
2011-07-22, 00:35:05,VALID,1000.42,VALID,0,VALID,72.1533,VALID,0,VALID,24.6575,VALID,190,VALID,0.330859,
2011-07-22, 00:36:05,VALID,1000.42,VALID,0,VALID,71.8024,VALID,0,VALID,24.6556,VALID,190,VALID,0.284375,
2011-07-22, 00:37:05,VALID,1000.41,VALID,0,VALID,71.9549,VALID,0,VALID,24.716,VALID,190,VALID,0.378516,
2011-07-22, 00:38:05,VALID,1000.45,VALID,0,VALID,73.107,VALID,0,VALID,24.6751,VALID,190,VALID,0.611328,
2011-07-22, 00:39:05,VALID,1000.48,VALID,0,VALID,75.3425,VALID,0,VALID,24.6166,VALID,282,VALID,0.732422,
2011-07-22, 00:40:05,VALID,1000.49,VALID,0,VALID,74.343,VALID,0,VALID,24.4818,VALID,298,VALID,0.680469,
2011-07-22, 00:41:05,VALID,1000.47,VALID,0,VALID,75.0755,VALID,0,VALID,24.4428,VALID,298,VALID,0.651953,
2011-07-22, 00:42:05,VALID,1000.49,VALID,0,VALID,76.4335,VALID,0,VALID,24.3824,VALID,298,VALID,0.586328,
2011-07-22, 00:43:05,VALID,1000.49,VALID,0,VALID,78.051,VALID,0,VALID,24.3452,VALID,298,VALID,0.303125,
2011-07-22, 00:44:05,VALID,1000.49,VALID,0,VALID,78.5317,VALID,0,VALID,24.2476,VALID,22,VALID,0.829687,
2011-07-22, 00:45:05,VALID,1000.47,VALID,0,VALID,78.1044,VALID,0,VALID,24.1305,VALID,68,VALID,1.54922,
2011-07-22, 00:46:05,VALID,1000.47,VALID,0,VALID,78.5698,VALID,0,VALID,24.072,VALID,63,VALID,1.73672,
2011-07-22, 00:47:05,VALID,1000.44,VALID,0,VALID,77.9366,VALID,0,VALID,24.0329,VALID,58,VALID,1.50391,
2011-07-22, 00:48:05,VALID,1000.46,VALID,0,VALID,77.6466,VALID,0,VALID,24.0525,VALID,62,VALID,1.20625,
2011-07-22, 00:49:05,VALID,1000.39,VALID,0,VALID,74.6482,VALID,0,VALID,24.0701,VALID,98,VALID,1.07539,
2011-07-22, 00:50:05,VALID,1000.39,VALID,0,VALID,76.8684,VALID,0,VALID,24.2067,VALID,80,VALID,1.09023,
2011-07-22, 00:51:05,VALID,1000.4,VALID,0,VALID,76.3801,VALID,0.112286,VALID,24.2458,VALID,74,VALID,1.15,
2011-07-22, 00:52:05,VALID,1000.39,VALID,0,VALID,76.7311,VALID,0,VALID,24.3043,VALID,66,VALID,1.00742,
2011-07-22, 00:53:05,VALID,1000.41,VALID,0,VALID,76.6777,VALID,0,VALID,24.3452,VALID,66,VALID,0.758594,
2011-07-22, 00:54:05,VALID,1000.39,VALID,0,VALID,76.6395,VALID,0,VALID,24.3647,VALID,66,VALID,0.582031,
2011-07-22, 00:55:05,VALID,1000.4,VALID,0,VALID,77.4406,VALID,0,VALID,24.3257,VALID,62,VALID,0.810156,
2011-07-22, 00:56:05,VALID,1000.4,VALID,0,VALID,77.9671,VALID,0,VALID,24.2653,VALID,62,VALID,0.673437,
2011-07-22, 00:57:05,VALID,1000.4,VALID,0,VALID,78.7377,VALID,0,VALID,24.2067,VALID,62,VALID,0.836328,
2011-07-22, 00:58:05,VALID,1000.44,VALID,0,VALID,77.494,VALID,0,VALID,24.1287,VALID,62,VALID,0.741797,
2011-07-22, 00:59:05,VALID,1000.43,VALID,0,VALID,77.4864,VALID,0,VALID,24.1092,VALID,62,VALID,0.736328,
2011-07-22, 01:00:05,VALID,1000.44,VALID,0,VALID,78.9818,VALID,0,VALID,24.1287,VALID,35,VALID,0.833594,
2011-07-22, 01:01:05,VALID,1000.46,VALID,0,VALID,79.5235,VALID,0,VALID,24.0701,VALID,28,VALID,0.987891,
2011-07-22, 01:02:05,VALID,1000.45,VALID,0,VALID,79.7982,VALID,0,VALID,24.0116,VALID,22,VALID,0.903125,
2011-07-22, 01:03:05,VALID,1000.42,VALID,0,VALID,80.1186,VALID,0,VALID,23.9744,VALID,16,VALID,0.938672,
2011-07-22, 01:04:05,VALID,1000.44,VALID,0,VALID,80.6222,VALID,0,VALID,23.9336,VALID,3,VALID,1.03125,
2011-07-22, 01:05:05,VALID,1000.42,VALID,0,VALID,80.9808,VALID,0,VALID,23.9159,VALID,3,VALID,1.03594,
2011-07-22, 01:06:05,VALID,1000.43,VALID,0,VALID,81.3394,VALID,0,VALID,23.8945,VALID,358,VALID,0.869531,
2011-07-22, 01:07:05,VALID,1000.41,VALID,0,VALID,81.9498,VALID,0,VALID,23.8768,VALID,358,VALID,0.898828,
2011-07-22, 01:08:05,VALID,1000.41,VALID,0,VALID,82.5296,VALID,0,VALID,23.8165,VALID,358,VALID,0.860547,
2011-07-22, 01:09:05,VALID,1000.39,VALID,0,VALID,83.0179,VALID,0,VALID,23.7775,VALID,358,VALID,0.542578,
2011-07-22, 01:10:05,VALID,1000.4,VALID,0,VALID,83.4146,VALID,0.112286,VALID,23.7384,VALID,358,VALID,0.448438,
2011-07-22, 01:11:05,VALID,1000.35,VALID,0,VALID,83.9029,VALID,0.112286,VALID,23.6781,VALID,360,VALID,0.922656,
2011-07-22, 01:12:05,VALID,1000.37,VALID,0,VALID,84.1089,VALID,0,VALID,23.6604,VALID,19,VALID,1.16719,
2011-07-22, 01:13:05,VALID,1000.36,VALID,0,VALID,84.4217,VALID,0,VALID,23.6427,VALID,19,VALID,1.19219,
2011-07-22, 01:14:05,VALID,1000.37,VALID,0,VALID,84.8643,VALID,0.112286,VALID,23.6019,VALID,19,VALID,1.15937,
2011-07-22, 01:15:05,VALID,1000.37,VALID,0,VALID,85.0626,VALID,0,VALID,23.5823,VALID,19,VALID,0.870313,
2011-07-22, 01:16:05,VALID,1000.38,VALID,0,VALID,85.0855,VALID,0,VALID,23.5628,VALID,19,VALID,0.851172,
2011-07-22, 01:17:05,VALID,1000.38,VALID,0,VALID,84.91,VALID,0.112286,VALID,23.5238,VALID,20,VALID,0.896094,
2011-07-22, 01:18:05,VALID,1000.38,VALID,0,VALID,84.6583,VALID,0.112286,VALID,23.5043,VALID,23,VALID,0.717188,
2011-07-22, 01:19:05,VALID,1000.39,VALID,0,VALID,84.788,VALID,0,VALID,23.5043,VALID,32,VALID,0.736328,
2011-07-22, 01:20:05,VALID,1000.41,VALID,0,VALID,85.5662,VALID,0,VALID,23.5238,VALID,54,VALID,1.14258,
2011-07-22, 01:21:05,VALID,1000.37,VALID,0,VALID,85.7874,VALID,0,VALID,23.5433,VALID,63,VALID,1.06523,
2011-07-22, 01:22:05,VALID,1000.36,VALID,0,VALID,85.9019,VALID,0,VALID,23.5646,VALID,63,VALID,0.813672,
2011-07-22, 01:23:05,VALID,1000.36,VALID,0,VALID,85.5967,VALID,0,VALID,23.5628,VALID,63,VALID,0.845312,
2011-07-22, 01:24:05,VALID,1000.34,VALID,0,VALID,85.5509,VALID,0,VALID,23.5628,VALID,63,VALID,0.782422,
2011-07-22, 01:25:05,VALID,1000.36,VALID,0,VALID,85.6272,VALID,0.112286,VALID,23.5823,VALID,63,VALID,0.738672,
2011-07-22, 01:26:05,VALID,1000.3,VALID,0,VALID,85.5738,VALID,0,VALID,23.5823,VALID,63,VALID,0.644531,
2011-07-22, 01:27:05,VALID,1000.31,VALID,0,VALID,85.5815,VALID,0,VALID,23.5823,VALID,63,VALID,0.657031,
2011-07-22, 01:28:05,VALID,1000.29,VALID,0,VALID,85.4899,VALID,0,VALID,23.6232,VALID,63,VALID,0.492188,
2011-07-22, 01:29:05,VALID,1000.28,VALID,0,VALID,85.2915,VALID,0,VALID,23.6019,VALID,63,VALID,0.458594,
2011-07-22, 01:30:05,VALID,1000.3,VALID,0,VALID,85.4899,VALID,0,VALID,23.6445,VALID,63,VALID,0.473828,
2011-07-22, 01:31:05,VALID,1000.23,VALID,0,VALID,85.2229,VALID,0,VALID,23.6445,VALID,63,VALID,0.334375,
2011-07-22, 01:32:05,VALID,1000.26,VALID,0,VALID,84.2463,VALID,0,VALID,23.625,VALID,63,VALID,0.469141,
2011-07-22, 01:33:04,VALID,1000.24,VALID,0,VALID,83.7427,VALID,0,VALID,23.6445,VALID,63,VALID,0.4125,
2011-07-22, 01:34:04,VALID,1000.27,VALID,0,VALID,83.8495,VALID,0,VALID,23.6427,VALID,63,VALID,0.495313,
2011-07-22, 01:35:04,VALID,1000.25,VALID,0,VALID,84.3455,VALID,0,VALID,23.6622,VALID,63,VALID,0.0414063,
2011-07-22, 01:36:04,VALID,1000.22,VALID,0,VALID,84.6354,VALID,0,VALID,23.703,VALID,63,VALID,0.0488281,
2011-07-22, 01:37:04,VALID,1000.2,VALID,0,VALID,84.7651,VALID,0,VALID,23.6622,VALID,63,VALID,0.158594,
2011-07-22, 01:38:04,VALID,1000.2,VALID,0,VALID,84.4141,VALID,0,VALID,23.6622,VALID,63,VALID,0.399219,
2011-07-22, 01:39:04,VALID,1000.17,VALID,0,VALID,83.6588,VALID,0,VALID,23.664,VALID,63,VALID,0.433203,
2011-07-22, 01:40:04,VALID,1000.17,VALID,0,VALID,83.4986,VALID,0,VALID,23.6817,VALID,63,VALID,0.362891,
2011-07-22, 01:41:04,VALID,1000.17,VALID,0,VALID,84.025,VALID,0,VALID,23.7012,VALID,63,VALID,0.388672,
2011-07-22, 01:42:04,VALID,1000.16,VALID,0,VALID,84.3683,VALID,0,VALID,23.7616,VALID,63,VALID,0.447656,
2011-07-22, 01:43:04,VALID,1000.16,VALID,0,VALID,84.437,VALID,0,VALID,23.742,VALID,63,VALID,0.517578,
2011-07-22, 01:44:04,VALID,1000.15,VALID,0,VALID,84.4599,VALID,0,VALID,23.7402,VALID,63,VALID,0.355469,
2011-07-22, 01:45:04,VALID,1000.17,VALID,0,VALID,84.9558,VALID,0,VALID,23.7597,VALID,57,VALID,0.714063,
2011-07-22, 01:46:04,VALID,1000.15,VALID,0,VALID,84.5057,VALID,0,VALID,23.7402,VALID,57,VALID,0.68125,
2011-07-22, 01:47:04,VALID,1000.15,VALID,0,VALID,84.6888,VALID,0,VALID,23.7616,VALID,52,VALID,0.708594,
2011-07-22, 01:48:04,VALID,1000.13,VALID,0,VALID,85.0474,VALID,0,VALID,23.7597,VALID,51,VALID,0.571094,
2011-07-22, 01:49:04,VALID,1000.13,VALID,0,VALID,85.2457,VALID,0,VALID,23.7402,VALID,51,VALID,0.538672,
2011-07-22, 01:50:04,VALID,1000.11,VALID,0,VALID,85.5357,VALID,0,VALID,23.7402,VALID,50,VALID,0.392188,
2011-07-22, 01:51:04,VALID,1000.08,VALID,0,VALID,85.7798,VALID,0,VALID,23.7207,VALID,50,VALID,0.373828,
2011-07-22, 01:52:04,VALID,1000.06,VALID,0,VALID,86.2681,VALID,0,VALID,23.7012,VALID,50,VALID,0.350781,
2011-07-22, 01:53:04,VALID,1000.05,VALID,0,VALID,86.7183,VALID,0,VALID,23.7012,VALID,50,VALID,0.197656,
2011-07-22, 01:54:04,VALID,1000.06,VALID,0,VALID,87.0006,VALID,0,VALID,23.6817,VALID,38,VALID,0.457812,
2011-07-22, 01:55:04,VALID,1000.05,VALID,0,VALID,86.5809,VALID,0,VALID,23.6232,VALID,38,VALID,0.700781,
2011-07-22, 01:56:04,VALID,1000.09,VALID,0,VALID,86.085,VALID,0,VALID,23.6036,VALID,38,VALID,0.439844,
2011-07-22, 01:57:04,VALID,1000.07,VALID,0,VALID,86.0697,VALID,0,VALID,23.5646,VALID,38,VALID,0.389453,
2011-07-22, 01:58:04,VALID,1000.05,VALID,0,VALID,86.3597,VALID,0,VALID,23.5841,VALID,38,VALID,0.315234,
2011-07-22, 01:59:04,VALID,1000.06,VALID,0,VALID,86.3292,VALID,0,VALID,23.5841,VALID,38,VALID,0.449609,
2011-07-22, 02:00:04,VALID,1000.06,VALID,0,VALID,86.1232,VALID,0,VALID,23.5859,VALID,38,VALID,0.609375,
2011-07-22, 02:01:04,VALID,1000.08,VALID,0,VALID,85.8409,VALID,0,VALID,23.5646,VALID,38,VALID,0.746484,
2011-07-22, 02:02:04,VALID,1000.01,VALID,0,VALID,85.2992,VALID,0,VALID,23.5451,VALID,38,VALID,0.663281,
2011-07-22, 02:03:04,VALID,1000.03,VALID,0,VALID,85.261,VALID,0,VALID,23.5646,VALID,38,VALID,0.519531,
2011-07-22, 02:04:04,VALID,1000.02,VALID,0,VALID,85.6043,VALID,0,VALID,23.5646,VALID,38,VALID,0.308594,
2011-07-22, 02:05:04,VALID,1000,VALID,0,VALID,85.6959,VALID,0,VALID,23.5841,VALID,38,VALID,0.324219,
2011-07-22, 02:06:04,VALID,999.991,VALID,0,VALID,85.5891,VALID,0,VALID,23.5841,VALID,38,VALID,0.295703,
2011-07-22, 02:07:04,VALID,999.963,VALID,0,VALID,85.3068,VALID,0,VALID,23.5646,VALID,38,VALID,0.329297,
2011-07-22, 02:08:04,VALID,999.946,VALID,0,VALID,85.1694,VALID,0,VALID,23.5646,VALID,38,VALID,0.235547,
2011-07-22, 02:09:04,VALID,999.943,VALID,0,VALID,85.2,VALID,0,VALID,23.5841,VALID,38,VALID,0.177344,
2011-07-22, 02:10:04,VALID,999.925,VALID,0,VALID,85.3678,VALID,0,VALID,23.5841,VALID,38,VALID,0,
2011-07-22, 02:11:04,VALID,999.913,VALID,0,VALID,85.4441,VALID,0,VALID,23.6036,VALID,38,VALID,0,
2011-07-22, 02:12:04,VALID,999.899,VALID,0,VALID,85.5433,VALID,0,VALID,23.6232,VALID,38,VALID,0,
2011-07-22, 02:13:04,VALID,999.906,VALID,0,VALID,85.7722,VALID,0,VALID,23.6445,VALID,38,VALID,0.221875,
2011-07-22, 02:14:04,VALID,999.895,VALID,0,VALID,85.7188,VALID,0,VALID,23.6036,VALID,38,VALID,0.410156,
2011-07-22, 02:15:04,VALID,999.872,VALID,0,VALID,85.5967,VALID,0,VALID,23.6232,VALID,38,VALID,0.489453,
2011-07-22, 02:16:04,VALID,999.844,VALID,0,VALID,84.9482,VALID,0,VALID,23.6232,VALID,38,VALID,0.540625,
2011-07-22, 02:17:04,VALID,999.818,VALID,0,VALID,84.4446,VALID,0,VALID,23.6427,VALID,38,VALID,0.630078,
2011-07-22, 02:18:04,VALID,999.809,VALID,0,VALID,84.292,VALID,0,VALID,23.6622,VALID,38,VALID,0.704687,
2011-07-22, 02:19:04,VALID,999.813,VALID,0,VALID,84.5133,VALID,0,VALID,23.6817,VALID,38,VALID,0.658594,
2011-07-22, 02:20:04,VALID,999.795,VALID,0,VALID,84.8185,VALID,0,VALID,23.7225,VALID,38,VALID,0.402344,
2011-07-22, 02:21:04,VALID,999.78,VALID,0,VALID,85.1389,VALID,0,VALID,23.6622,VALID,38,VALID,0.332422,
2011-07-22, 02:22:04,VALID,999.785,VALID,0,VALID,85.2839,VALID,0,VALID,23.6427,VALID,38,VALID,0.449219,
2011-07-22, 02:23:04,VALID,999.802,VALID,0,VALID,85.6043,VALID,0,VALID,23.6445,VALID,9,VALID,0.496484,
2011-07-22, 02:24:04,VALID,999.779,VALID,0,VALID,85.4823,VALID,0,VALID,23.6036,VALID,9,VALID,0.445313,
2011-07-22, 02:25:04,VALID,999.768,VALID,0,VALID,85.2763,VALID,0,VALID,23.5841,VALID,9,VALID,0.324609,
2011-07-22, 02:26:04,VALID,999.781,VALID,0,VALID,85.2,VALID,0,VALID,23.5841,VALID,9,VALID,0.128906,
2011-07-22, 02:27:04,VALID,999.775,VALID,0,VALID,84.9863,VALID,0,VALID,23.5646,VALID,9,VALID,0.071875,
2011-07-22, 02:28:04,VALID,999.791,VALID,0,VALID,84.7422,VALID,0,VALID,23.5859,VALID,9,VALID,0.0699219,
2011-07-22, 02:29:04,VALID,999.779,VALID,0,VALID,84.6964,VALID,0,VALID,23.5646,VALID,9,VALID,0.00078125,
2011-07-22, 02:30:04,VALID,999.781,VALID,0,VALID,84.7117,VALID,0,VALID,23.5646,VALID,9,VALID,0,
2011-07-22, 02:31:04,VALID,999.777,VALID,0,VALID,84.7117,VALID,0,VALID,23.5646,VALID,9,VALID,0,
2011-07-22, 02:32:04,VALID,999.759,VALID,0,VALID,84.7498,VALID,0,VALID,23.5238,VALID,9,VALID,0,
2011-07-22, 02:33:04,VALID,999.766,VALID,0,VALID,84.7727,VALID,0,VALID,23.5256,VALID,9,VALID,0,
2011-07-22, 02:34:04,VALID,999.786,VALID,0,VALID,84.7422,VALID,0.112286,VALID,23.5043,VALID,9,VALID,0,
2011-07-22, 02:35:04,VALID,999.78,VALID,0,VALID,84.7193,VALID,0.112286,VALID,23.4848,VALID,9,VALID,0,
2011-07-22, 02:36:04,VALID,999.76,VALID,0,VALID,84.788,VALID,0.112286,VALID,23.4848,VALID,9,VALID,0,
2011-07-22, 02:37:04,VALID,999.753,VALID,0,VALID,84.4294,VALID,0,VALID,23.4848,VALID,9,VALID,0,
2011-07-22, 02:38:04,VALID,999.719,VALID,0,VALID,83.9945,VALID,0,VALID,23.4848,VALID,9,VALID,0,
2011-07-22, 02:39:04,VALID,999.752,VALID,0,VALID,83.9716,VALID,0,VALID,23.5043,VALID,9,VALID,0.218359,
2011-07-22, 02:40:04,VALID,999.709,VALID,0,VALID,83.9487,VALID,0,VALID,23.5451,VALID,9,VALID,0.348047,
2011-07-22, 02:41:04,VALID,999.71,VALID,0,VALID,83.7961,VALID,0,VALID,23.5238,VALID,9,VALID,0.232031,
2011-07-22, 02:42:04,VALID,999.699,VALID,0,VALID,83.4757,VALID,0.112286,VALID,23.5433,VALID,9,VALID,0.351953,
2011-07-22, 02:43:04,VALID,999.69,VALID,0,VALID,84.086,VALID,0,VALID,23.5628,VALID,9,VALID,0.283203,
2011-07-22, 02:44:04,VALID,999.685,VALID,0,VALID,84.6812,VALID,0,VALID,23.5646,VALID,9,VALID,0.0328125,
2011-07-22, 02:45:04,VALID,999.69,VALID,0,VALID,84.7651,VALID,0,VALID,23.5433,VALID,9,VALID,0.421875,
2011-07-22, 02:46:04,VALID,999.7,VALID,0,VALID,85.0016,VALID,0,VALID,23.5043,VALID,9,VALID,0.559375,
2011-07-22, 02:47:04,VALID,999.699,VALID,0,VALID,85.322,VALID,0,VALID,23.5256,VALID,9,VALID,0.516797,
2011-07-22, 02:48:04,VALID,999.723,VALID,0,VALID,85.6883,VALID,0,VALID,23.5043,VALID,9,VALID,0.411328,
2011-07-22, 02:49:04,VALID,999.717,VALID,0,VALID,86.1918,VALID,0.112286,VALID,23.4848,VALID,9,VALID,0.400781,
2011-07-22, 02:50:04,VALID,999.727,VALID,0,VALID,85.9553,VALID,0,VALID,23.4458,VALID,9,VALID,0.573828,
2011-07-22, 02:51:04,VALID,999.729,VALID,0,VALID,85.7035,VALID,0,VALID,23.4458,VALID,9,VALID,0.721484,
2011-07-22, 02:52:04,VALID,999.702,VALID,0,VALID,85.8943,VALID,0,VALID,23.4848,VALID,9,VALID,0.692578,
2011-07-22, 02:53:04,VALID,999.694,VALID,0,VALID,85.5662,VALID,0,VALID,23.5043,VALID,9,VALID,0.648828,
2011-07-22, 02:54:04,VALID,999.681,VALID,0,VALID,85.5509,VALID,0.112286,VALID,23.5043,VALID,22,VALID,0.582422,
2011-07-22, 02:55:04,VALID,999.656,VALID,0,VALID,86.1155,VALID,0,VALID,23.5433,VALID,22,VALID,0.51875,
2011-07-22, 02:56:04,VALID,999.695,VALID,0,VALID,86.5046,VALID,0.112286,VALID,23.5238,VALID,22,VALID,0.303516,
2011-07-22, 02:57:04,VALID,999.664,VALID,0,VALID,86.6954,VALID,0.112286,VALID,23.5256,VALID,19,VALID,0.583594,
2011-07-22, 02:58:04,VALID,999.667,VALID,0,VALID,87.0006,VALID,0,VALID,23.5061,VALID,9,VALID,0.795313,
2011-07-22, 02:59:04,VALID,999.645,VALID,0,VALID,87.0997,VALID,0,VALID,23.4848,VALID,354,VALID,0.719922,
2011-07-22, 03:00:04,VALID,999.658,VALID,0,VALID,87.1226,VALID,0,VALID,23.5061,VALID,352,VALID,0.525781,
2011-07-22, 03:01:04,VALID,999.651,VALID,0,VALID,87.2523,VALID,0,VALID,23.5061,VALID,352,VALID,0.535937,
2011-07-22, 03:02:04,VALID,999.657,VALID,0,VALID,87.4431,VALID,0,VALID,23.5274,VALID,352,VALID,0.583984,
2011-07-22, 03:03:04,VALID,999.656,VALID,0,VALID,87.3439,VALID,0,VALID,23.4866,VALID,352,VALID,0.773047,
2011-07-22, 03:04:04,VALID,999.647,VALID,0,VALID,87.3057,VALID,0,VALID,23.4866,VALID,352,VALID,0.655078,
2011-07-22, 03:05:04,VALID,999.63,VALID,0,VALID,87.3057,VALID,0,VALID,23.4866,VALID,352,VALID,0.747266,
2011-07-22, 03:06:04,VALID,999.634,VALID,0,VALID,87.4583,VALID,0,VALID,23.4671,VALID,359,VALID,0.846875,
2011-07-22, 03:07:04,VALID,999.625,VALID,0,VALID,87.588,VALID,0,VALID,23.4475,VALID,359,VALID,0.763281,
2011-07-22, 03:08:04,VALID,999.594,VALID,0,VALID,87.6872,VALID,0,VALID,23.428,VALID,359,VALID,0.701172,
2011-07-22, 03:09:04,VALID,999.583,VALID,0,VALID,87.6796,VALID,0,VALID,23.3908,VALID,6,VALID,0.991406,
2011-07-22, 03:10:04,VALID,999.556,VALID,0,VALID,87.6796,VALID,0,VALID,23.3305,VALID,8,VALID,1.06875,
2011-07-22, 03:11:04,VALID,999.548,VALID,0,VALID,87.7559,VALID,0,VALID,23.35,VALID,12,VALID,0.853125,
2011-07-22, 03:12:04,VALID,999.559,VALID,0,VALID,88,VALID,0,VALID,23.3305,VALID,24,VALID,0.796484,
2011-07-22, 03:13:04,VALID,999.534,VALID,0,VALID,88.1984,VALID,0,VALID,23.3127,VALID,35,VALID,1.19023,
2011-07-22, 03:14:04,VALID,999.549,VALID,0,VALID,88.4044,VALID,0,VALID,23.3127,VALID,33,VALID,0.808984,
2011-07-22, 03:15:04,VALID,999.559,VALID,0,VALID,88.6562,VALID,0,VALID,23.2915,VALID,33,VALID,0.625391,
2011-07-22, 03:16:04,VALID,999.584,VALID,0,VALID,88.8469,VALID,0,VALID,23.2915,VALID,48,VALID,0.597656,
2011-07-22, 03:17:04,VALID,999.584,VALID,0,VALID,88.9919,VALID,0,VALID,23.2719,VALID,47,VALID,0.665234,
2011-07-22, 03:18:04,VALID,999.59,VALID,0,VALID,89.0606,VALID,0,VALID,23.2737,VALID,47,VALID,0.832812,
2011-07-22, 03:19:04,VALID,999.594,VALID,0,VALID,88.7477,VALID,0,VALID,23.2134,VALID,46,VALID,0.617188,
2011-07-22, 03:20:04,VALID,999.57,VALID,0,VALID,88.4044,VALID,0,VALID,23.1744,VALID,36,VALID,0.680469,
2011-07-22, 03:21:04,VALID,999.56,VALID,0,VALID,88.1984,VALID,0,VALID,23.1354,VALID,29,VALID,0.648047,
2011-07-22, 03:22:04,VALID,999.553,VALID,0,VALID,88.2366,VALID,0,VALID,23.1354,VALID,30,VALID,0.873828,
2011-07-22, 03:23:04,VALID,999.566,VALID,0,VALID,88.3357,VALID,0,VALID,23.1354,VALID,30,VALID,0.79375,
2011-07-22, 03:24:04,VALID,999.574,VALID,0,VALID,88.4807,VALID,0,VALID,23.1159,VALID,30,VALID,0.671484,
2011-07-22, 03:25:04,VALID,999.556,VALID,0,VALID,88.5189,VALID,0,VALID,23.1159,VALID,30,VALID,0.759375,
2011-07-22, 03:26:04,VALID,999.555,VALID,0,VALID,88.3205,VALID,0,VALID,23.0964,VALID,30,VALID,0.697656,
2011-07-22, 03:27:04,VALID,999.532,VALID,0,VALID,88.4273,VALID,0,VALID,23.0769,VALID,30,VALID,0.350781,
2011-07-22, 03:28:04,VALID,999.524,VALID,0,VALID,88.4807,VALID,0,VALID,23.0786,VALID,30,VALID,0.64375,
2011-07-22, 03:29:04,VALID,999.509,VALID,0,VALID,88.1603,VALID,0,VALID,23.0591,VALID,29,VALID,0.85625,
2011-07-22, 03:30:04,VALID,999.505,VALID,0,VALID,88,VALID,0,VALID,23.0591,VALID,29,VALID,0.780859,
2011-07-22, 03:31:04,VALID,999.478,VALID,0,VALID,87.9771,VALID,0,VALID,23.0591,VALID,29,VALID,0.892578,
2011-07-22, 03:32:04,VALID,999.497,VALID,0,VALID,88.0306,VALID,0,VALID,23.0183,VALID,29,VALID,0.760938,
2011-07-22, 03:33:04,VALID,999.47,VALID,0,VALID,88.1832,VALID,0,VALID,23.0591,VALID,30,VALID,0.560547,
2011-07-22, 03:34:04,VALID,999.474,VALID,0,VALID,88.3129,VALID,0,VALID,23.0591,VALID,30,VALID,0.349609,
2011-07-22, 03:35:04,VALID,999.492,VALID,0,VALID,88.3892,VALID,0,VALID,22.9988,VALID,30,VALID,0.198437,
2011-07-22, 03:36:04,VALID,999.483,VALID,0,VALID,88.4044,VALID,0,VALID,22.9988,VALID,30,VALID,0.0648438,
2011-07-22, 03:37:04,VALID,999.501,VALID,0,VALID,88.412,VALID,0,VALID,22.9988,VALID,30,VALID,0.422656,
2011-07-22, 03:38:04,VALID,999.512,VALID,0,VALID,88.3892,VALID,0,VALID,23.0201,VALID,30,VALID,0.403516,
2011-07-22, 03:39:04,VALID,999.501,VALID,0,VALID,88.0611,VALID,0,VALID,23.0006,VALID,30,VALID,1.07109,
2011-07-22, 03:40:04,VALID,999.533,VALID,0,VALID,87.0692,VALID,0,VALID,23.0396,VALID,30,VALID,1.28086,
2011-07-22, 03:41:04,VALID,999.532,VALID,0,VALID,86.291,VALID,0,VALID,23.0981,VALID,30,VALID,0.941016,
2011-07-22, 03:42:04,VALID,999.555,VALID,0,VALID,86.3063,VALID,0,VALID,23.1549,VALID,30,VALID,0.499609,
2011-07-22, 03:43:04,VALID,999.532,VALID,0,VALID,86.3978,VALID,0,VALID,23.1744,VALID,30,VALID,0.220313,
2011-07-22, 03:44:04,VALID,999.555,VALID,0,VALID,86.6191,VALID,0,VALID,23.1939,VALID,30,VALID,0.373828,
2011-07-22, 03:45:04,VALID,999.534,VALID,0,VALID,86.703,VALID,0,VALID,23.2152,VALID,30,VALID,0.297656,
2011-07-22, 03:46:04,VALID,999.556,VALID,0,VALID,86.7564,VALID,0,VALID,23.1744,VALID,29,VALID,0.505469,